Weather History for KGEV - April, 2014

Change the Weather History Date:

Saturday, April 19, 2014

  Actual Average Record
Temperature  
Mean Temperature 51 °F -  
Max Temperature 58 °F 64 °F 83 °F (1976)
Min Temperature 44 °F 38 °F 19 °F (1983)
Degree Days  
Heating Degree Days 14    
Growing Degree Days 1 (Base 50)    
Moisture  
Dew Point 31 °F    
Average Humidity 48    
Maximum Humidity 70    
Minimum Humidity 27    
Precipitation  
Precipitation 0.00 in - - ()
Sea Level Pressure  
Sea Level Pressure 30.20 in    
Wind  
Wind Speed 3 mph (NE)    
Max Wind Speed 14 mph    
Max Gust Speed 21 mph    
Visibility 10 miles    
Events Rain    
Averages and records for this station are not official NWS values.
T = Trace of Precipitation, MM = Missing Value Source: NWS Daily Summary

Daily Weather History Graph

Daily Weather History Graph

Search for Another Location

Airport or City:

Trip Planner

Search our weather history database for the weather conditions in past years. The results will help you decide how hot, cold, wet, or windy it might be!

Date:

Astronomy

Apr. 19, 2014 Rise Set
Actual Time 6:46 AM EDT 8:03 PM EDT
Civil Twilight 6:20 AM EDT 8:30 PM EDT
Nautical Twilight 5:48 AM EDT 9:02 PM EDT
Astronomical Twilight 5:14 AM EDT 9:35 PM EDT
Moon No Moon Rise 10:07 AM EDT (4/19)
Length of Visible Light 14h 10m
Length of Day
13h 16m
Waning Gibbous, 79% of the Moon is Illuminated
Apr 19
Waning Gibbous
Apr 22
Last Quarter
Apr 29
New
May 6
First Quarter
May 14
Full

Hourly Weather History & Observations

Time (EDT) Temp. Windchill Dew Point Humidity Pressure Visibility Wind Dir Wind Speed Gust Speed Precip Events Conditions
12:15 AM 46.0 °F - 36.0 °F 68% 30.22 in 10.0 mi Calm Calm - N/A   Overcast
12:35 AM 46.9 °F - 34.2 °F 61% 30.21 in 10.0 mi Calm Calm - N/A   Overcast
12:55 AM 47.5 °F - 32.0 °F 55% 30.21 in 10.0 mi Calm Calm - N/A   Overcast
1:15 AM 47.3 °F - 32.0 °F 55% 30.21 in 10.0 mi Calm Calm - N/A   Overcast
1:35 AM 46.4 °F - 33.3 °F 60% 30.20 in 10.0 mi Calm Calm - N/A   Overcast
1:55 AM 46.8 °F - 32.7 °F 58% 30.20 in 10.0 mi Calm Calm - N/A   Overcast
2:15 AM 45.7 °F - 34.5 °F 65% 30.20 in 10.0 mi Calm Calm - N/A   Light Drizzle
2:35 AM 46.4 °F - 33.8 °F 62% 30.19 in 10.0 mi Calm Calm - N/A   Drizzle
2:55 AM 46.4 °F - 34.3 °F 63% 30.18 in 10.0 mi Calm Calm - N/A Rain Light Rain
3:15 AM 45.0 °F 42.6 °F 34.9 °F 68% 30.18 in 10.0 mi North 4.6 mph - N/A Rain Light Rain
3:35 AM 45.1 °F 43.7 °F 34.7 °F 67% 30.17 in 10.0 mi North 3.5 mph - N/A   Light Drizzle
3:55 AM 45.0 °F 42.6 °F 35.8 °F 70% 30.17 in 10.0 mi North 4.6 mph - N/A   Overcast
4:15 AM 46.0 °F - 34.0 °F 63% 30.17 in 10.0 mi Calm Calm - N/A   Overcast
4:35 AM 46.0 °F - 34.2 °F 63% 30.17 in 10.0 mi Calm Calm - N/A   Overcast
4:55 AM 45.9 °F - 34.0 °F 63% 30.17 in 10.0 mi Calm Calm - N/A   Overcast
5:15 AM 46.2 °F 44.1 °F 33.6 °F 61% 30.16 in 10.0 mi NNW 4.6 mph - N/A   Light Drizzle
5:35 AM 46.0 °F - 33.4 °F 61% 30.16 in 10.0 mi Calm Calm - N/A   Overcast
5:55 AM 45.7 °F - 33.4 °F 62% 30.15 in 10.0 mi Calm Calm - N/A   Overcast
6:15 AM 45.5 °F 44.2 °F 32.7 °F 61% 30.15 in 10.0 mi NNE 3.5 mph - N/A   Overcast
6:35 AM 44.8 °F 43.3 °F 33.8 °F 65% 30.15 in 10.0 mi NNE 3.5 mph - N/A   Overcast
6:55 AM 45.5 °F - 32.5 °F 61% 30.16 in 10.0 mi Calm Calm - N/A Rain Light Rain
7:15 AM 46.2 °F 45.0 °F 30.9 °F 55% 30.16 in 10.0 mi North 3.5 mph - N/A Rain Rain
7:35 AM 45.5 °F 43.2 °F 31.8 °F 59% 30.17 in 10.0 mi North 4.6 mph - N/A   Light Drizzle
7:55 AM 45.5 °F 42.5 °F 31.6 °F 58% 30.18 in 10.0 mi NNE 5.8 mph - N/A   Overcast
8:15 AM 45.7 °F 42.7 °F 31.6 °F 58% 30.19 in 10.0 mi NE 5.8 mph - N/A   Overcast
8:35 AM 46.4 °F - 31.1 °F 55% 30.19 in 10.0 mi Calm Calm - N/A   Overcast
8:55 AM 46.6 °F - 32.0 °F 57% 30.19 in 10.0 mi Calm Calm - N/A   Overcast
9:15 AM 47.7 °F - 29.1 °F 49% 30.19 in 10.0 mi NE 4.6 mph - N/A   Overcast
9:35 AM 48.2 °F - 30.2 °F 50% 30.20 in 10.0 mi East 3.5 mph - N/A   Overcast
9:55 AM 48.6 °F - 28.8 °F 46% 30.20 in 10.0 mi NE 4.6 mph - N/A   Overcast
10:15 AM 49.5 °F - 27.5 °F 43% 30.20 in 10.0 mi NE 4.6 mph - N/A   Scattered Clouds
10:35 AM 50.2 °F - 28.0 °F 42% 30.21 in 10.0 mi East 3.5 mph - N/A   Mostly Cloudy
10:55 AM 50.9 °F - 26.2 °F 38% 30.21 in 10.0 mi ENE 5.8 mph - N/A   Mostly Cloudy
11:15 AM 52.0 °F - 27.1 °F 38% 30.20 in 10.0 mi ENE 11.5 mph 16.1 mph N/A   Scattered Clouds
11:35 AM 53.8 °F - 25.3 °F 33% 30.20 in 10.0 mi NE 10.4 mph - N/A   Scattered Clouds
11:55 AM 54.9 °F - 24.4 °F 31% 30.21 in 10.0 mi East 8.1 mph - N/A   Scattered Clouds
12:15 PM 55.2 °F - 22.8 °F 28% 30.21 in 10.0 mi ENE 11.5 mph 19.6 mph N/A   Mostly Cloudy
12:35 PM 55.4 °F - 22.6 °F 28% 30.21 in 10.0 mi ENE 11.5 mph 18.4 mph N/A   Overcast
12:55 PM 56.5 °F - 24.1 °F 29% 30.21 in 10.0 mi NE 8.1 mph 17.3 mph N/A   Overcast
1:15 PM 56.7 °F - 23.5 °F 28% 30.20 in 10.0 mi NE 12.7 mph 17.3 mph N/A   Overcast
1:35 PM 57.0 °F - 24.1 °F 28% 30.21 in 10.0 mi ENE 13.8 mph 19.6 mph N/A   Overcast
1:55 PM 55.9 °F - 25.0 °F 30% 30.20 in 10.0 mi ENE 10.4 mph 16.1 mph N/A   Overcast
2:15 PM 56.7 °F - 26.8 °F 32% 30.20 in 10.0 mi ENE 9.2 mph - N/A   Overcast
2:35 PM 57.2 °F - 24.3 °F 28% 30.20 in 10.0 mi NNE 9.2 mph 17.3 mph N/A   Overcast
2:55 PM 57.4 °F - 24.6 °F 28% 30.20 in 10.0 mi ENE 10.4 mph 16.1 mph N/A   Overcast
3:15 PM 57.9 °F - 24.3 °F 27% 30.19 in 10.0 mi NE 9.2 mph 16.1 mph N/A   Overcast
3:35 PM 58.1 °F - 24.1 °F 27% 30.19 in 10.0 mi ENE 9.2 mph 16.1 mph N/A   Overcast
3:55 PM 58.8 °F - 24.6 °F 27% 30.19 in 10.0 mi NE 11.5 mph 17.3 mph N/A   Overcast
4:15 PM 58.1 °F - 25.3 °F 28% 30.19 in 10.0 mi East 13.8 mph 20.7 mph N/A   Mostly Cloudy
4:35 PM 57.9 °F - 27.5 °F 31% 30.18 in 10.0 mi ENE 9.2 mph 17.3 mph N/A   Overcast
4:55 PM 58.1 °F - 28.9 °F 33% 30.18 in 10.0 mi ENE 9.2 mph - N/A   Mostly Cloudy
5:15 PM 57.7 °F - 29.3 °F 34% 30.18 in 10.0 mi NE 8.1 mph - N/A   Scattered Clouds
5:35 PM 58.1 °F - 29.7 °F 34% 30.18 in 10.0 mi East 12.7 mph - N/A   Clear
5:55 PM 57.6 °F - 30.6 °F 36% 30.19 in 10.0 mi ENE 10.4 mph - N/A   Scattered Clouds
6:15 PM 57.4 °F - 31.1 °F 37% 30.20 in 10.0 mi NE 5.8 mph - N/A   Mostly Cloudy
6:35 PM 57.2 °F - 31.8 °F 38% 30.20 in 10.0 mi ENE 5.8 mph - N/A   Overcast
6:55 PM 56.7 °F - 31.8 °F 39% 30.21 in 10.0 mi East 9.2 mph - N/A   Overcast
7:15 PM 56.3 °F - 31.1 °F 38% 30.21 in 10.0 mi ENE 8.1 mph - N/A   Overcast
7:35 PM 55.8 °F - 31.5 °F 40% 30.22 in 10.0 mi East 6.9 mph - N/A   Overcast
7:55 PM 53.6 °F - 34.5 °F 48% 30.22 in 10.0 mi South 3.5 mph - N/A   Overcast
8:15 PM 52.5 °F - 35.1 °F 51% 30.23 in 10.0 mi South 3.5 mph - N/A   Overcast
8:35 PM 51.8 °F - 34.7 °F 52% 30.24 in 10.0 mi SSE 3.5 mph - N/A   Overcast
8:55 PM 51.4 °F - 34.7 °F 53% 30.24 in 10.0 mi Calm Calm - N/A   Overcast
9:15 PM 51.3 °F - 34.3 °F 52% 30.25 in 10.0 mi Calm Calm - N/A   Overcast
9:35 PM 51.3 °F - 34.0 °F 52% 30.25 in 10.0 mi Calm Calm - N/A   Overcast
9:55 PM 50.9 °F - 33.8 °F 52% 30.26 in 10.0 mi Calm Calm - N/A   Mostly Cloudy
10:15 PM 51.1 °F - 33.4 °F 51% 30.26 in 10.0 mi Calm Calm - N/A   Mostly Cloudy
10:35 PM 51.1 °F - 33.3 °F 51% 30.26 in 10.0 mi Calm Calm - N/A   Scattered Clouds
10:55 PM 51.1 °F - 32.9 °F 50% 30.26 in 10.0 mi Calm Calm - N/A   Clear
11:15 PM 50.2 °F - 33.3 °F 52% 30.27 in 10.0 mi Calm Calm - N/A   Clear
11:35 PM 50.0 °F - 33.4 °F 53% 30.26 in 10.0 mi Calm Calm - N/A   Clear
11:55 PM 49.1 °F - 34.0 °F 56% 30.26 in 10.0 mi Calm Calm - N/A   Clear